Weather History for Howell, MI

Change the Weather History Date:

Tuesday, August 20, 2013

  Actual Average Record
Temperature  
Mean Temperature 73 °F -  
Max Temperature 85 °F 78 °F 89 °F (1996)
Min Temperature 61 °F 58 °F 46 °F (2008)
Cooling Degree Days 8    
Growing Degree Days 23 (Base 50)    
Moisture  
Dew Point 62 °F    
Average Humidity 70    
Maximum Humidity 94    
Minimum Humidity 41    
Precipitation  
Precipitation 0.00 in - - ()
Sea Level Pressure  
Sea Level Pressure 30.12 in    
Wind  
Wind Speed 4 mph (SW)    
Max Wind Speed 10 mph    
Max Gust Speed 16 mph    
Visibility 10 miles    
Events      
Averages and records for this station are not official NWS values.
T = Trace of Precipitation, MM = Missing Value Source: NWS Daily Summary

Daily Weather History Graph

Daily Weather History Graph

Search for Another Location

Airport:

Trip Planner

Search our weather history database for the weather conditions in past years. The results will help you decide how hot, cold, wet, or windy it might be!

Date:

Astronomy

Aug. 20, 2013 Rise Set
Actual Time 6:48 AM EDT 8:29 PM EDT
Civil Twilight 6:18 AM EDT 8:59 PM EDT
Nautical Twilight 5:41 AM EDT 9:35 PM EDT
Astronomical Twilight 5:02 AM EDT 10:14 PM EDT
Moon 7:58 PM EDT (8/20) 6:17 AM EDT (8/20)
Length of Visible Light 14h 41m
Length of Day
13h 41m
Full, 100% of the Moon is Illuminated
Aug 20
Full
Aug 20
Full
Aug 28
Last Quarter
Sep 5
New
Sep 12
First Quarter

Hourly Weather History & Observations

Time (EDT) Temp. Heat Index Dew Point Humidity Pressure Visibility Wind Dir Wind Speed Gust Speed Precip Events Conditions
12:15 AM 65.3 °F - 60.6 °F 85% 30.09 in 10.0 mi SW 4.6 mph - N/A   Clear
12:34 AM 63.9 °F - 60.3 °F 88% 30.09 in 10.0 mi SW 3.5 mph - N/A   Clear
12:55 AM 63.0 °F - 60.1 °F 90% 30.09 in 10.0 mi SW 3.5 mph - N/A   Clear
1:15 AM 62.2 °F - 59.9 °F 92% 30.09 in 10.0 mi SW 3.5 mph - N/A   Clear
1:34 AM 61.9 °F - 59.9 °F 93% 30.09 in 10.0 mi SW 3.5 mph - N/A   Clear
1:55 AM 61.7 °F - 59.9 °F 94% 30.09 in 10.0 mi SW 3.5 mph - N/A   Clear
2:15 AM 61.7 °F - 59.9 °F 94% 30.09 in 10.0 mi Calm Calm - N/A   Clear
2:34 AM 61.9 °F - 59.9 °F 93% 30.09 in 10.0 mi SW 3.5 mph - N/A   Clear
2:55 AM 62.1 °F - 60.3 °F 94% 30.09 in 10.0 mi Calm Calm - N/A   Clear
3:15 AM 62.6 °F - 60.4 °F 93% 30.09 in 10.0 mi Calm Calm - N/A   Scattered Clouds
3:34 AM 61.5 °F - 59.5 °F 93% 30.09 in 7.0 mi Calm Calm - N/A   Scattered Clouds
3:55 AM 62.8 °F - 60.3 °F 91% 30.09 in 10.0 mi Calm Calm - N/A   Clear
4:15 AM 63.0 °F - 60.3 °F 91% 30.09 in 10.0 mi Calm Calm - N/A   Clear
4:34 AM 61.5 °F - 59.4 °F 93% 30.10 in 10.0 mi Calm Calm - N/A   Clear
4:55 AM 61.9 °F - 59.7 °F 93% 30.10 in 10.0 mi Calm Calm - N/A   Clear
5:14 AM 62.2 °F - 59.5 °F 91% 30.10 in 10.0 mi SSW 3.5 mph - N/A   Clear
5:34 AM 62.6 °F - 59.5 °F 90% 30.10 in 10.0 mi SSW 3.5 mph - N/A   Clear
5:55 AM 62.2 °F - 59.4 °F 90% 30.10 in 10.0 mi SW 3.5 mph - N/A   Clear
6:15 AM 62.4 °F - 59.2 °F 89% 30.11 in 10.0 mi SSW 3.5 mph - N/A   Clear
6:34 AM 62.2 °F - 59.0 °F 89% 30.11 in 10.0 mi SSW 3.5 mph - N/A   Clear
6:54 AM 61.7 °F - 58.8 °F 90% 30.12 in 10.0 mi SSW 3.5 mph - N/A   Clear
7:15 AM 61.9 °F - 59.0 °F 90% 30.13 in 10.0 mi SW 3.5 mph - N/A   Clear
7:34 AM 63.0 °F - 59.7 °F 89% 30.14 in 10.0 mi SW 4.6 mph - N/A   Clear
7:54 AM 64.4 °F - 60.3 °F 86% 30.14 in 10.0 mi SW 4.6 mph - N/A   Clear
8:15 AM 65.3 °F - 61.3 °F 87% 30.14 in 10.0 mi WSW 3.5 mph - N/A   Clear
8:34 AM 66.6 °F - 61.9 °F 85% 30.15 in 10.0 mi WSW 4.6 mph - N/A   Clear
8:54 AM 68.2 °F - 63.3 °F 84% 30.15 in 10.0 mi WSW 4.6 mph - N/A   Clear
9:15 AM 69.6 °F - 63.7 °F 81% 30.15 in 10.0 mi SW 4.6 mph - N/A   Scattered Clouds
9:34 AM 71.6 °F - 64.4 °F 78% 30.16 in 10.0 mi WSW 5.8 mph - N/A   Clear
9:54 AM 73.4 °F - 64.9 °F 75% 30.16 in 10.0 mi WSW 5.8 mph - N/A   Clear
10:15 AM 74.8 °F - 65.1 °F 72% 30.16 in 10.0 mi SW 5.8 mph - N/A   Scattered Clouds
10:34 AM 76.6 °F - 65.5 °F 68% 30.16 in 10.0 mi WSW 5.8 mph - N/A   Clear
10:54 AM 78.1 °F - 64.8 °F 63% 30.16 in 10.0 mi WSW 4.6 mph - N/A   Clear
11:15 AM 79.5 °F - 64.2 °F 59% 30.16 in 10.0 mi WSW 6.9 mph - N/A   Clear
11:34 AM 80.8 °F 82.2 °F 63.5 °F 56% 30.17 in 10.0 mi SSW 4.6 mph - N/A   Clear
11:55 AM 81.7 °F 82.9 °F 62.8 °F 53% 30.16 in 10.0 mi WSW 5.8 mph - N/A   Clear
12:15 PM 81.5 °F 82.5 °F 62.4 °F 52% 30.16 in 10.0 mi WSW 5.8 mph - N/A   Scattered Clouds
12:34 PM 82.6 °F 83.2 °F 61.9 °F 49% 30.16 in 10.0 mi SW 8.1 mph - N/A   Scattered Clouds
12:54 PM 82.6 °F 83.4 °F 62.1 °F 50% 30.16 in 10.0 mi WSW 8.1 mph - N/A   Mostly Cloudy
1:15 PM 82.9 °F 83.8 °F 62.6 °F 50% 30.15 in 10.0 mi West 8.1 mph - N/A   Mostly Cloudy
1:34 PM 84.7 °F 85.2 °F 61.9 °F 46% 30.15 in 10.0 mi SW 9.2 mph - N/A   Mostly Cloudy
1:55 PM 84.4 °F 84.6 °F 60.6 °F 45% 30.14 in 10.0 mi SW 4.6 mph - N/A   Mostly Cloudy
2:15 PM 84.9 °F 85.0 °F 60.4 °F 44% 30.14 in 10.0 mi SW 9.2 mph - N/A   Mostly Cloudy
2:34 PM 85.5 °F 85.4 °F 60.4 °F 43% 30.13 in 10.0 mi SW 10.4 mph 16.1 mph N/A   Mostly Cloudy
2:55 PM 85.5 °F 85.4 °F 60.6 °F 43% 30.13 in 10.0 mi SW 10.4 mph - N/A   Scattered Clouds
3:15 PM 84.9 °F 84.6 °F 59.7 °F 42% 30.12 in 10.0 mi SSW 8.1 mph - N/A   Scattered Clouds
3:34 PM 85.3 °F 85.4 °F 60.8 °F 44% 30.12 in 10.0 mi West 6.9 mph 10.4 mph N/A   Clear
3:55 PM 84.9 °F 85.0 °F 60.6 °F 44% 30.12 in 10.0 mi SW 10.4 mph - N/A   Scattered Clouds
4:15 PM 85.6 °F 85.4 °F 60.3 °F 42% 30.11 in 10.0 mi WSW 6.9 mph - N/A   Clear
4:34 PM 85.5 °F 85.2 °F 59.7 °F 42% 30.11 in 10.0 mi SW 10.4 mph - N/A   Scattered Clouds
4:55 PM 85.5 °F 85.0 °F 59.4 °F 41% 30.10 in 10.0 mi SW 9.2 mph - N/A   Scattered Clouds
5:15 PM 84.6 °F 84.6 °F 60.3 °F 44% 30.10 in 10.0 mi SW 8.1 mph - N/A   Scattered Clouds
5:34 PM 84.2 °F 84.4 °F 60.6 °F 45% 30.10 in 10.0 mi SSW 5.8 mph - N/A   Scattered Clouds
5:55 PM 83.8 °F 84.1 °F 60.8 °F 46% 30.10 in 10.0 mi SW 6.9 mph - N/A   Scattered Clouds
6:15 PM 84.0 °F 84.5 °F 61.7 °F 47% 30.10 in 10.0 mi SW 6.9 mph - N/A   Scattered Clouds
6:34 PM 83.5 °F 84.1 °F 61.9 °F 48% 30.10 in 10.0 mi SW 5.8 mph - N/A   Scattered Clouds
6:55 PM 82.2 °F 82.9 °F 61.5 °F 49% 30.10 in 10.0 mi SW 4.6 mph - N/A   Clear
7:14 PM 81.7 °F 82.7 °F 62.4 °F 52% 30.10 in 10.0 mi WSW 5.8 mph - N/A   Clear
7:34 PM 80.6 °F 82.0 °F 63.5 °F 56% 30.10 in 10.0 mi WSW 3.5 mph - N/A   Clear
7:55 PM 79.7 °F - 63.0 °F 56% 30.10 in 10.0 mi SW 3.5 mph - N/A   Clear
8:14 PM 78.3 °F - 63.1 °F 60% 30.10 in 10.0 mi SW 3.5 mph - N/A   Clear
8:34 PM 77.0 °F - 63.1 °F 62% 30.10 in 10.0 mi Calm Calm - N/A   Clear
8:55 PM 76.6 °F - 63.5 °F 64% 30.11 in 10.0 mi SSW 3.5 mph - N/A   Clear
9:14 PM 76.1 °F - 63.5 °F 65% 30.11 in 10.0 mi Calm Calm - N/A   Clear
9:34 PM 73.9 °F - 63.9 °F 71% 30.12 in 10.0 mi Calm Calm - N/A   Clear
9:55 PM 73.2 °F - 63.9 °F 72% 30.12 in 10.0 mi Calm Calm - N/A   Clear
10:14 PM 72.3 °F - 64.6 °F 77% 30.12 in 10.0 mi Calm Calm - N/A   Clear
10:34 PM 70.9 °F - 64.8 °F 81% 30.12 in 10.0 mi Calm Calm - N/A   Clear
10:55 PM 69.8 °F - 64.9 °F 84% 30.12 in 10.0 mi Calm Calm - N/A   Clear
11:14 PM 69.6 °F - 64.9 °F 85% 30.12 in 10.0 mi Calm Calm - N/A   Clear
11:34 PM 68.5 °F - 64.6 °F 87% 30.12 in 10.0 mi Calm Calm - N/A   Clear
11:55 PM 67.3 °F - 64.9 °F 92% 30.13 in 7.0 mi Calm Calm - N/A   Clear